contact:dominique.lefevre@mio.osupytheas.fr, maurice.libes@osupytheas.fr, didier.mallarino@osupytheas.fr
Project:EMSO http://www.emso-fr.org/EMSO-France
Depth: 2436.0 m
Title:EMSO Ligure Ouest : Data MII capteur CSTAR
DateTime,Latitude,Longitude,Instrument_Serial,Reference_Counts,Signal_Counts,Corrected_Signal_raw_counts,Calculated_Beam_c_inverse_meters,Internal_thermistor_counts
DateTime,Latitude,Longitude,Instrument_Serial,Reference_Counts,Signal_Counts,Corrected_Signal_raw_counts,Calculated_Beam_c_inverse_meters,Internal_thermistor_counts
2019-06-20T00:01:36,42.805,6.029,CST-1368DR,8982,12568,15521,0.024,551
2019-06-20T00:04:38,42.805,6.029,CST-1368DR,8982,12567,15520,0.025,551
2019-06-20T00:07:39,42.805,6.029,CST-1368DR,8982,12568,15520,0.025,551
2019-06-20T00:10:40,42.805,6.029,CST-1368DR,8982,12569,15522,0.024,551
2019-06-20T00:13:42,42.805,6.029,CST-1368DR,8982,12568,15520,0.025,551
2019-06-20T00:16:43,42.805,6.029,CST-1368DR,8982,12569,15522,0.024,551
2019-06-20T00:19:45,42.805,6.029,CST-1368DR,8982,12568,15521,0.024,550
2019-06-20T00:22:46,42.805,6.029,CST-1368DR,8982,12567,15519,0.025,551
2019-06-20T00:25:47,42.805,6.029,CST-1368DR,8981,12568,15522,0.024,551
2019-06-20T00:28:49,42.805,6.029,CST-1368DR,8982,12569,15521,0.024,551
2019-06-20T00:31:50,42.805,6.029,CST-1368DR,8982,12568,15521,0.024,551
2019-06-20T00:34:52,42.805,6.029,CST-1368DR,8981,12567,15522,0.024,551
2019-06-20T00:37:53,42.805,6.029,CST-1368DR,8981,12567,15522,0.024,551
2019-06-20T00:40:54,42.805,6.029,CST-1368DR,8981,12566,15520,0.025,551
2019-06-20T00:43:56,42.805,6.029,CST-1368DR,8981,12567,15521,0.024,550
2019-06-20T00:46:57,42.805,6.029,CST-1368DR,8981,12569,15524,0.024,551
2019-06-20T00:49:59,42.805,6.029,CST-1368DR,8981,12569,15524,0.024,551
2019-06-20T00:53:00,42.805,6.029,CST-1368DR,8981,12567,15521,0.024,551
2019-06-20T00:56:01,42.805,6.029,CST-1368DR,8981,12568,15522,0.024,551
2019-06-20T00:59:03,42.805,6.029,CST-1368DR,8981,12566,15520,0.025,551
2019-06-20T01:02:04,42.805,6.029,CST-1368DR,8981,12567,15522,0.024,551
2019-06-20T01:05:06,42.805,6.029,CST-1368DR,8981,12569,15523,0.024,551
2019-06-20T01:08:07,42.805,6.029,CST-1368DR,8981,12566,15520,0.025,551
2019-06-20T01:11:09,42.805,6.029,CST-1368DR,8981,12568,15522,0.024,551
2019-06-20T01:14:10,42.805,6.029,CST-1368DR,8981,12567,15521,0.024,551
2019-06-20T01:17:11,42.805,6.029,CST-1368DR,8981,12569,15524,0.024,551
2019-06-20T01:20:13,42.805,6.029,CST-1368DR,8981,12568,15523,0.024,551
2019-06-20T01:23:14,42.805,6.029,CST-1368DR,8981,12569,15523,0.024,551
2019-06-20T01:26:16,42.805,6.029,CST-1368DR,8981,12568,15523,0.024,551
2019-06-20T01:29:17,42.805,6.029,CST-1368DR,8981,12568,15523,0.024,551
2019-06-20T01:32:18,42.805,6.029,CST-1368DR,8981,12569,15523,0.024,550
2019-06-20T01:35:20,42.805,6.029,CST-1368DR,8981,12568,15523,0.024,551
2019-06-20T01:38:21,42.805,6.029,CST-1368DR,8981,12568,15522,0.024,551
2019-06-20T01:41:23,42.805,6.029,CST-1368DR,8981,12567,15521,0.024,551
2019-06-20T01:44:24,42.805,6.029,CST-1368DR,8981,12570,15524,0.024,551
2019-06-20T01:47:25,42.805,6.029,CST-1368DR,8981,12568,15523,0.024,551
2019-06-20T01:50:27,42.805,6.029,CST-1368DR,8981,12569,15524,0.024,550
2019-06-20T01:53:28,42.805,6.029,CST-1368DR,8981,12569,15524,0.024,551
2019-06-20T01:56:30,42.805,6.029,CST-1368DR,8981,12567,15522,0.024,551
2019-06-20T01:59:31,42.805,6.029,CST-1368DR,8981,12567,15521,0.024,551
2019-06-20T02:02:32,42.805,6.029,CST-1368DR,8981,12568,15522,0.024,551
2019-06-20T02:05:34,42.805,6.029,CST-1368DR,8981,12569,15523,0.024,551
2019-06-20T02:08:35,42.805,6.029,CST-1368DR,8981,12565,15519,0.025,551
2019-06-20T02:11:37,42.805,6.029,CST-1368DR,8981,12569,15524,0.024,551
2019-06-20T02:14:38,42.805,6.029,CST-1368DR,8981,12567,15521,0.024,551
2019-06-20T02:17:40,42.805,6.029,CST-1368DR,8981,12569,15523,0.024,551
2019-06-20T02:20:41,42.805,6.029,CST-1368DR,8981,12569,15523,0.024,551
2019-06-20T02:23:42,42.805,6.029,CST-1368DR,8981,12569,15524,0.024,551
2019-06-20T02:26:44,42.805,6.029,CST-1368DR,8981,12569,15523,0.024,551
2019-06-20T02:29:45,42.805,6.029,CST-1368DR,8981,12568,15523,0.024,551
2019-06-20T02:32:47,42.805,6.029,CST-1368DR,8981,12567,15521,0.024,551
2019-06-20T02:35:48,42.805,6.029,CST-1368DR,8981,12568,15523,0.024,551
2019-06-20T02:38:49,42.805,6.029,CST-1368DR,8980,12568,15523,0.024,551
2019-06-20T02:41:51,42.805,6.029,CST-1368DR,8981,12568,15522,0.024,551
2019-06-20T02:44:52,42.805,6.029,CST-1368DR,8980,12568,15523,0.024,551
2019-06-20T02:47:54,42.805,6.029,CST-1368DR,8980,12568,15524,0.024,551
2019-06-20T02:50:55,42.805,6.029,CST-1368DR,8980,12567,15523,0.024,551
2019-06-20T02:53:56,42.805,6.029,CST-1368DR,8980,12567,15523,0.024,550
2019-06-20T02:56:58,42.805,6.029,CST-1368DR,8980,12568,15523,0.024,551
2019-06-20T02:59:59,42.805,6.029,CST-1368DR,8980,12566,15522,0.024,551
2019-06-20T03:03:01,42.805,6.029,CST-1368DR,8980,12566,15522,0.024,551
2019-06-20T03:06:02,42.805,6.029,CST-1368DR,8980,12568,15524,0.024,551
2019-06-20T03:09:03,42.805,6.029,CST-1368DR,8980,12567,15523,0.024,551
2019-06-20T03:12:05,42.805,6.029,CST-1368DR,8980,12568,15524,0.024,551
2019-06-20T03:15:06,42.805,6.029,CST-1368DR,8980,12565,15520,0.025,550
2019-06-20T03:18:08,42.805,6.029,CST-1368DR,8980,12568,15524,0.024,551
2019-06-20T03:21:09,42.805,6.029,CST-1368DR,8980,12567,15522,0.024,551
2019-06-20T03:24:11,42.805,6.029,CST-1368DR,8980,12568,15524,0.024,550
2019-06-20T03:27:12,42.805,6.029,CST-1368DR,8980,12568,15523,0.024,551
2019-06-20T03:30:13,42.805,6.029,CST-1368DR,8980,12568,15524,0.024,551
2019-06-20T03:33:15,42.805,6.029,CST-1368DR,8980,12567,15523,0.024,551
2019-06-20T03:36:16,42.805,6.029,CST-1368DR,8980,12567,15523,0.024,551
2019-06-20T03:39:18,42.805,6.029,CST-1368DR,8980,12565,15521,0.024,551
2019-06-20T03:42:19,42.805,6.029,CST-1368DR,8980,12567,15523,0.024,551
2019-06-20T03:45:20,42.805,6.029,CST-1368DR,8980,12566,15522,0.024,551
2019-06-20T03:48:22,42.805,6.029,CST-1368DR,8979,12551,15504,0.029,551
2019-06-20T03:51:23,42.805,6.029,CST-1368DR,8980,12564,15519,0.025,551
2019-06-20T03:54:25,42.805,6.029,CST-1368DR,8980,12567,15523,0.024,551
2019-06-20T03:57:26,42.805,6.029,CST-1368DR,8980,12567,15523,0.024,551
2019-06-20T04:00:27,42.805,6.029,CST-1368DR,8980,12566,15522,0.024,551
2019-06-20T04:03:29,42.805,6.029,CST-1368DR,8979,12561,15517,0.025,551
2019-06-20T04:06:30,42.805,6.029,CST-1368DR,8979,12565,15522,0.024,551
2019-06-20T04:09:32,42.805,6.029,CST-1368DR,8979,12566,15523,0.024,551
2019-06-20T04:12:33,42.805,6.029,CST-1368DR,8979,12566,15523,0.024,551
2019-06-20T04:15:34,42.805,6.029,CST-1368DR,8979,12567,15524,0.024,551
2019-06-20T04:18:36,42.805,6.029,CST-1368DR,8979,12567,15524,0.024,551
2019-06-20T04:21:37,42.805,6.029,CST-1368DR,8979,12565,15522,0.024,551
2019-06-20T04:24:39,42.805,6.029,CST-1368DR,8979,12566,15523,0.024,551
2019-06-20T04:27:40,42.805,6.029,CST-1368DR,8979,12565,15522,0.024,551
2019-06-20T04:30:42,42.805,6.029,CST-1368DR,8979,12565,15522,0.024,551
2019-06-20T04:33:43,42.805,6.029,CST-1368DR,8979,12566,15523,0.024,551
2019-06-20T04:36:44,42.805,6.029,CST-1368DR,8979,12566,15523,0.024,551
2019-06-20T04:39:46,42.805,6.029,CST-1368DR,8979,12565,15522,0.024,551
2019-06-20T04:42:47,42.805,6.029,CST-1368DR,8979,12565,15522,0.024,551
2019-06-20T04:45:49,42.805,6.029,CST-1368DR,8979,12563,15519,0.025,551
2019-06-20T04:48:50,42.805,6.029,CST-1368DR,8979,12566,15523,0.024,551
2019-06-20T04:51:51,42.805,6.029,CST-1368DR,8979,12565,15522,0.024,551
2019-06-20T04:54:53,42.805,6.029,CST-1368DR,8979,12565,15522,0.024,551
2019-06-20T04:57:54,42.805,6.029,CST-1368DR,8979,12565,15522,0.024,551
2019-06-20T05:00:56,42.805,6.029,CST-1368DR,8979,12565,15522,0.024,551
2019-06-20T05:03:57,42.805,6.029,CST-1368DR,8979,12563,15519,0.025,551
2019-06-20T05:06:58,42.805,6.029,CST-1368DR,8979,12562,15518,0.025,550
2019-06-20T05:10:00,42.805,6.029,CST-1368DR,8979,12564,15521,0.024,551
2019-06-20T05:13:01,42.805,6.029,CST-1368DR,8979,12564,15520,0.025,551
2019-06-20T05:16:03,42.805,6.029,CST-1368DR,8979,12565,15522,0.024,551
2019-06-20T05:19:04,42.805,6.029,CST-1368DR,8979,12566,15523,0.024,551
2019-06-20T05:22:05,42.805,6.029,CST-1368DR,8979,12560,15516,0.026,551
2019-06-20T05:25:07,42.805,6.029,CST-1368DR,8979,12566,15523,0.024,551
2019-06-20T05:28:08,42.805,6.029,CST-1368DR,8979,12566,15523,0.024,551
2019-06-20T05:31:10,42.805,6.029,CST-1368DR,8979,12564,15521,0.024,551
2019-06-20T05:34:11,42.805,6.029,CST-1368DR,8979,12565,15522,0.024,551
2019-06-20T05:37:13,42.805,6.029,CST-1368DR,8978,12564,15522,0.024,551
2019-06-20T05:40:14,42.805,6.029,CST-1368DR,8978,12566,15524,0.024,551
2019-06-20T05:43:15,42.805,6.029,CST-1368DR,8978,12564,15522,0.024,551
2019-06-20T05:46:17,42.805,6.029,CST-1368DR,8978,12563,15520,0.025,551
2019-06-20T05:49:18,42.805,6.029,CST-1368DR,8978,12563,15521,0.024,551
2019-06-20T05:52:20,42.805,6.029,CST-1368DR,8978,12563,15521,0.024,551
2019-06-20T05:55:21,42.805,6.029,CST-1368DR,8978,12564,15522,0.024,550
2019-06-20T05:58:22,42.805,6.029,CST-1368DR,8978,12565,15524,0.024,551
2019-06-20T06:01:24,42.805,6.029,CST-1368DR,8978,12563,15521,0.024,551
2019-06-20T06:04:25,42.805,6.029,CST-1368DR,8978,12563,15521,0.024,551
2019-06-20T06:07:27,42.805,6.029,CST-1368DR,8978,12564,15522,0.024,551
2019-06-20T06:10:28,42.805,6.029,CST-1368DR,8978,12564,15522,0.024,551
2019-06-20T06:13:29,42.805,6.029,CST-1368DR,8978,12564,15523,0.024,551
2019-06-20T06:16:31,42.805,6.029,CST-1368DR,8978,12564,15522,0.024,551
2019-06-20T06:19:32,42.805,6.029,CST-1368DR,8978,12563,15521,0.024,550
2019-06-20T06:22:34,42.805,6.029,CST-1368DR,8978,12562,15519,0.025,551
2019-06-20T06:25:35,42.805,6.029,CST-1368DR,8978,12559,15516,0.026,551
2019-06-20T06:28:36,42.805,6.029,CST-1368DR,8978,12564,15522,0.024,551
2019-06-20T06:31:38,42.805,6.029,CST-1368DR,8978,12562,15520,0.025,550
2019-06-20T06:34:39,42.805,6.029,CST-1368DR,8977,12550,15507,0.028,551
2019-06-20T06:37:41,42.805,6.029,CST-1368DR,8978,12559,15516,0.026,551
2019-06-20T06:40:42,42.805,6.029,CST-1368DR,8978,12559,15516,0.026,551
2019-06-20T06:43:44,42.805,6.029,CST-1368DR,8978,12560,15518,0.025,550
2019-06-20T06:46:45,42.805,6.029,CST-1368DR,8978,12557,15513,0.026,551
2019-06-20T06:49:46,42.805,6.029,CST-1368DR,8978,12564,15523,0.024,551
2019-06-20T06:52:48,42.805,6.029,CST-1368DR,8978,12562,15520,0.025,551
2019-06-20T06:55:49,42.805,6.029,CST-1368DR,8977,12560,15519,0.025,551
2019-06-20T06:58:51,42.805,6.029,CST-1368DR,8977,12560,15519,0.025,551
2019-06-20T07:01:52,42.805,6.029,CST-1368DR,8977,12564,15524,0.024,551
2019-06-20T07:04:53,42.805,6.029,CST-1368DR,8977,12563,15523,0.024,551
2019-06-20T07:07:55,42.805,6.029,CST-1368DR,8977,12564,15523,0.024,551
2019-06-20T07:10:56,42.805,6.029,CST-1368DR,8977,12561,15520,0.025,551
2019-06-20T07:13:58,42.805,6.029,CST-1368DR,8977,12563,15523,0.024,551
2019-06-20T07:16:59,42.805,6.029,CST-1368DR,8977,12562,15521,0.024,551
2019-06-20T07:20:00,42.805,6.029,CST-1368DR,8977,12563,15522,0.024,551
2019-06-20T07:23:02,42.805,6.029,CST-1368DR,8977,12563,15522,0.024,550
2019-06-20T07:26:03,42.805,6.029,CST-1368DR,8977,12562,15521,0.024,550
2019-06-20T07:29:05,42.805,6.029,CST-1368DR,8977,12563,15523,0.024,551
2019-06-20T07:32:06,42.805,6.029,CST-1368DR,8977,12561,15520,0.025,551
2019-06-20T07:35:08,42.805,6.029,CST-1368DR,8977,12563,15522,0.024,550
2019-06-20T07:38:09,42.805,6.029,CST-1368DR,8977,12562,15521,0.024,551
2019-06-20T07:41:10,42.805,6.029,CST-1368DR,8977,12562,15521,0.024,551
2019-06-20T07:44:12,42.805,6.029,CST-1368DR,8977,12559,15517,0.025,550
2019-06-20T07:47:13,42.805,6.029,CST-1368DR,8977,12562,15521,0.024,551
2019-06-20T07:50:15,42.805,6.029,CST-1368DR,8977,12560,15519,0.025,550
2019-06-20T07:53:16,42.805,6.029,CST-1368DR,8977,12563,15522,0.024,551
2019-06-20T07:56:17,42.805,6.029,CST-1368DR,8977,12563,15523,0.024,551
2019-06-20T07:59:19,42.805,6.029,CST-1368DR,8977,12562,15521,0.024,551
2019-06-20T08:02:20,42.805,6.029,CST-1368DR,8977,12562,15521,0.024,551
2019-06-20T08:05:22,42.805,6.029,CST-1368DR,8977,12562,15522,0.024,551
2019-06-20T08:08:23,42.805,6.029,CST-1368DR,8976,12560,15521,0.024,551
2019-06-20T08:11:24,42.805,6.029,CST-1368DR,8976,12563,15524,0.024,551
2019-06-20T08:14:26,42.805,6.029,CST-1368DR,8976,12562,15523,0.024,551
2019-06-20T08:17:27,42.805,6.029,CST-1368DR,8976,12563,15524,0.024,551
2019-06-20T08:20:29,42.805,6.029,CST-1368DR,8976,12559,15519,0.025,551
2019-06-20T08:23:30,42.805,6.029,CST-1368DR,8976,12562,15523,0.024,551
2019-06-20T08:26:31,42.805,6.029,CST-1368DR,8976,12560,15521,0.024,551
2019-06-20T08:29:33,42.805,6.029,CST-1368DR,8976,12562,15523,0.024,551
2019-06-20T08:32:34,42.805,6.029,CST-1368DR,8976,12562,15523,0.024,551
2019-06-20T08:35:36,42.805,6.029,CST-1368DR,8976,12562,15523,0.024,551
2019-06-20T08:38:37,42.805,6.029,CST-1368DR,8976,12560,15520,0.025,550
2019-06-20T08:41:39,42.805,6.029,CST-1368DR,8976,12557,15516,0.026,551
2019-06-20T08:44:40,42.805,6.029,CST-1368DR,8976,12559,15519,0.025,551
2019-06-20T08:47:41,42.805,6.029,CST-1368DR,8976,12560,15521,0.024,551
2019-06-20T08:50:43,42.805,6.029,CST-1368DR,8976,12558,15518,0.025,551
2019-06-20T08:53:44,42.805,6.029,CST-1368DR,8976,12562,15523,0.024,551
2019-06-20T08:56:46,42.805,6.029,CST-1368DR,8976,12561,15521,0.024,551
2019-06-20T08:59:47,42.805,6.029,CST-1368DR,8976,12558,15518,0.025,551
2019-06-20T09:02:48,42.805,6.029,CST-1368DR,8976,12561,15522,0.024,551
2019-06-20T09:05:50,42.805,6.029,CST-1368DR,8976,12563,15525,0.023,550
2019-06-20T09:08:51,42.805,6.029,CST-1368DR,8976,12561,15521,0.024,551
2019-06-20T09:11:53,42.805,6.029,CST-1368DR,8976,12561,15521,0.024,551
2019-06-20T09:14:54,42.805,6.029,CST-1368DR,8976,12559,15519,0.025,551
2019-06-20T09:17:55,42.805,6.029,CST-1368DR,8976,12562,15523,0.024,551
2019-06-20T09:20:57,42.805,6.029,CST-1368DR,8976,12562,15523,0.024,551
2019-06-20T09:23:58,42.805,6.029,CST-1368DR,8976,12561,15522,0.024,551
2019-06-20T09:27:00,42.805,6.029,CST-1368DR,8976,12563,15524,0.024,551
2019-06-20T09:30:01,42.805,6.029,CST-1368DR,8976,12562,15522,0.024,551
2019-06-20T09:33:03,42.805,6.029,CST-1368DR,8976,12564,15525,0.023,551
2019-06-20T09:36:04,42.805,6.029,CST-1368DR,8976,12561,15521,0.024,550
2019-06-20T09:39:05,42.805,6.029,CST-1368DR,8976,12562,15523,0.024,551
2019-06-20T09:42:07,42.805,6.029,CST-1368DR,8976,12562,15523,0.024,551
2019-06-20T09:45:08,42.805,6.029,CST-1368DR,8976,12562,15523,0.024,550
2019-06-20T09:48:10,42.805,6.029,CST-1368DR,8976,12560,15520,0.025,551
2019-06-20T09:51:11,42.805,6.029,CST-1368DR,8976,12559,15519,0.025,551
2019-06-20T09:54:12,42.805,6.029,CST-1368DR,8975,12562,15525,0.023,551
2019-06-20T09:57:14,42.805,6.029,CST-1368DR,8976,12561,15522,0.024,551
2019-06-20T10:00:15,42.805,6.029,CST-1368DR,8975,12557,15518,0.025,551
2019-06-20T10:03:17,42.805,6.029,CST-1368DR,8975,12561,15523,0.024,551
2019-06-20T10:06:18,42.805,6.029,CST-1368DR,8975,12560,15522,0.024,551
2019-06-20T10:09:19,42.805,6.029,CST-1368DR,8975,12558,15520,0.025,551
2019-06-20T10:12:21,42.805,6.029,CST-1368DR,8975,12557,15518,0.025,551
2019-06-20T10:15:22,42.805,6.029,CST-1368DR,8975,12559,15521,0.024,551
2019-06-20T10:18:24,42.805,6.029,CST-1368DR,8975,12560,15521,0.024,550
2019-06-20T10:21:25,42.805,6.029,CST-1368DR,8975,12560,15521,0.024,551
2019-06-20T10:24:26,42.805,6.029,CST-1368DR,8975,12561,15523,0.024,551
2019-06-20T10:27:28,42.805,6.029,CST-1368DR,8975,12561,15523,0.024,551
2019-06-20T10:30:29,42.805,6.029,CST-1368DR,8975,12561,15523,0.024,551
2019-06-20T10:33:31,42.805,6.029,CST-1368DR,8975,12562,15524,0.024,551
2019-06-20T10:36:32,42.805,6.029,CST-1368DR,8975,12560,15522,0.024,551
2019-06-20T10:39:34,42.805,6.029,CST-1368DR,8975,12561,15523,0.024,551
2019-06-20T10:42:35,42.805,6.029,CST-1368DR,8975,12560,15522,0.024,551
2019-06-20T10:45:36,42.805,6.029,CST-1368DR,8975,12562,15524,0.024,551
2019-06-20T10:48:38,42.805,6.029,CST-1368DR,8975,12561,15523,0.024,551
2019-06-20T10:51:39,42.805,6.029,CST-1368DR,8975,12562,15524,0.024,551
2019-06-20T10:54:41,42.805,6.029,CST-1368DR,8975,12561,15523,0.024,551
2019-06-20T10:57:42,42.805,6.029,CST-1368DR,8975,12555,15516,0.026,551
2019-06-20T11:00:43,42.805,6.029,CST-1368DR,8975,12559,15521,0.024,551
2019-06-20T11:03:45,42.805,6.029,CST-1368DR,8975,12561,15523,0.024,551
2019-06-20T11:06:46,42.805,6.029,CST-1368DR,8975,12560,15522,0.024,551
2019-06-20T11:09:48,42.805,6.029,CST-1368DR,8975,12560,15521,0.024,551
2019-06-20T11:12:49,42.805,6.029,CST-1368DR,8975,12560,15522,0.024,551
2019-06-20T11:15:50,42.805,6.029,CST-1368DR,8975,12560,15522,0.024,551
2019-06-20T11:18:52,42.805,6.029,CST-1368DR,8975,12561,15523,0.024,551
2019-06-20T11:21:53,42.805,6.029,CST-1368DR,8975,12559,15520,0.025,551
2019-06-20T11:24:55,42.805,6.029,CST-1368DR,8975,12557,15519,0.025,551
2019-06-20T11:27:56,42.805,6.029,CST-1368DR,8975,12558,15519,0.025,551
2019-06-20T11:30:57,42.805,6.029,CST-1368DR,8975,12558,15520,0.025,551
2019-06-20T11:33:59,42.805,6.029,CST-1368DR,8975,12561,15524,0.024,551
2019-06-20T11:37:00,42.805,6.029,CST-1368DR,8975,12557,15518,0.025,551
2019-06-20T11:40:02,42.805,6.029,CST-1368DR,8975,12559,15521,0.024,551
2019-06-20T11:43:03,42.805,6.029,CST-1368DR,8975,12555,15516,0.026,551
2019-06-20T11:46:05,42.805,6.029,CST-1368DR,8975,12561,15523,0.024,551
2019-06-20T11:49:06,42.805,6.029,CST-1368DR,8975,12560,15522,0.024,551
2019-06-20T11:52:07,42.805,6.029,CST-1368DR,8975,12558,15520,0.025,550
2019-06-20T11:55:09,42.805,6.029,CST-1368DR,8975,12558,15519,0.025,550
2019-06-20T11:58:10,42.805,6.029,CST-1368DR,8975,12559,15521,0.024,551
2019-06-20T12:01:12,42.805,6.029,CST-1368DR,8975,12558,15519,0.025,551
2019-06-20T12:04:13,42.805,6.029,CST-1368DR,8975,12560,15521,0.024,551
2019-06-20T12:07:14,42.805,6.029,CST-1368DR,8975,12559,15521,0.024,551
2019-06-20T12:10:16,42.805,6.029,CST-1368DR,8975,12560,15521,0.024,551
2019-06-20T12:13:17,42.805,6.029,CST-1368DR,8975,12560,15522,0.024,551
2019-06-20T12:16:19,42.805,6.029,CST-1368DR,8975,12560,15522,0.024,551
2019-06-20T12:19:20,42.805,6.029,CST-1368DR,8974,12559,15522,0.024,551
2019-06-20T12:22:21,42.805,6.029,CST-1368DR,8974,12558,15522,0.024,551
2019-06-20T12:25:23,42.805,6.029,CST-1368DR,8974,12558,15521,0.024,551
2019-06-20T12:28:24,42.805,6.029,CST-1368DR,8974,12556,15518,0.025,551
2019-06-20T12:31:26,42.805,6.029,CST-1368DR,8974,12554,15516,0.026,551
2019-06-20T12:34:27,42.805,6.029,CST-1368DR,8974,12556,15519,0.025,551
2019-06-20T12:37:28,42.805,6.029,CST-1368DR,8974,12559,15522,0.024,551
2019-06-20T12:40:30,42.805,6.029,CST-1368DR,8974,12559,15522,0.024,551
2019-06-20T12:43:31,42.805,6.029,CST-1368DR,8974,12552,15514,0.026,551
2019-06-20T12:46:33,42.805,6.029,CST-1368DR,8974,12557,15520,0.025,551
2019-06-20T12:49:34,42.805,6.029,CST-1368DR,8974,12557,15520,0.025,551
2019-06-20T12:52:36,42.805,6.029,CST-1368DR,8974,12557,15520,0.025,551
2019-06-20T12:55:37,42.805,6.029,CST-1368DR,8974,12559,15522,0.024,551
2019-06-20T12:58:38,42.805,6.029,CST-1368DR,8974,12557,15520,0.025,551
2019-06-20T13:01:40,42.805,6.029,CST-1368DR,8974,12559,15522,0.024,551
2019-06-20T13:04:41,42.805,6.029,CST-1368DR,8974,12559,15522,0.024,551
2019-06-20T13:07:43,42.805,6.029,CST-1368DR,8974,12559,15522,0.024,551
2019-06-20T13:10:44,42.805,6.029,CST-1368DR,8974,12555,15517,0.025,551
2019-06-20T13:13:45,42.805,6.029,CST-1368DR,8974,12559,15522,0.024,551
2019-06-20T13:16:47,42.805,6.029,CST-1368DR,8974,12559,15522,0.024,551
2019-06-20T13:19:48,42.805,6.029,CST-1368DR,8974,12557,15520,0.025,551
2019-06-20T13:22:50,42.805,6.029,CST-1368DR,8974,12559,15522,0.024,551
2019-06-20T13:25:51,42.805,6.029,CST-1368DR,8974,12557,15520,0.025,551
2019-06-20T13:28:52,42.805,6.029,CST-1368DR,8974,12556,15519,0.025,551
2019-06-20T13:31:54,42.805,6.029,CST-1368DR,8974,12558,15521,0.024,551
2019-06-20T13:34:55,42.805,6.029,CST-1368DR,8974,12556,15518,0.025,551
2019-06-20T13:37:57,42.805,6.029,CST-1368DR,8974,12558,15522,0.024,551
2019-06-20T13:40:58,42.805,6.029,CST-1368DR,8974,12556,15519,0.025,551
2019-06-20T13:44:00,42.805,6.029,CST-1368DR,8974,12556,15518,0.025,551
2019-06-20T13:47:01,42.805,6.029,CST-1368DR,8974,12559,15522,0.024,551
2019-06-20T13:50:02,42.805,6.029,CST-1368DR,8974,12557,15519,0.025,551
2019-06-20T13:53:04,42.805,6.029,CST-1368DR,8973,12558,15523,0.024,550
2019-06-20T13:56:05,42.805,6.029,CST-1368DR,8974,12556,15519,0.025,551
2019-06-20T13:59:07,42.805,6.029,CST-1368DR,8973,12557,15522,0.024,550
2019-06-20T14:02:08,42.805,6.029,CST-1368DR,8973,12557,15521,0.024,551
2019-06-20T14:05:09,42.805,6.029,CST-1368DR,8973,12557,15521,0.024,551
2019-06-20T14:08:11,42.805,6.029,CST-1368DR,8973,12557,15522,0.024,551
2019-06-20T14:11:12,42.805,6.029,CST-1368DR,8973,12556,15520,0.025,551
2019-06-20T14:14:14,42.805,6.029,CST-1368DR,8973,12559,15523,0.024,551
2019-06-20T14:17:15,42.805,6.029,CST-1368DR,8973,12557,15522,0.024,551
2019-06-20T14:20:16,42.805,6.029,CST-1368DR,8973,12555,15519,0.025,551
2019-06-20T14:23:18,42.805,6.029,CST-1368DR,8973,12560,15525,0.023,551
2019-06-20T14:26:19,42.805,6.029,CST-1368DR,8973,12557,15521,0.024,551
2019-06-20T14:29:21,42.805,6.029,CST-1368DR,8973,12557,15522,0.024,551
2019-06-20T14:32:22,42.805,6.029,CST-1368DR,8973,12557,15522,0.024,551
2019-06-20T14:35:23,42.805,6.029,CST-1368DR,8973,12559,15524,0.024,551
2019-06-20T14:38:25,42.805,6.029,CST-1368DR,8973,12557,15522,0.024,551
2019-06-20T14:41:26,42.805,6.029,CST-1368DR,8973,12558,15522,0.024,551
2019-06-20T14:44:28,42.805,6.029,CST-1368DR,8973,12555,15519,0.025,551
2019-06-20T14:47:29,42.805,6.029,CST-1368DR,8973,12557,15521,0.024,551
2019-06-20T14:50:31,42.805,6.029,CST-1368DR,8973,12558,15523,0.024,551
2019-06-20T14:53:32,42.805,6.029,CST-1368DR,8973,12558,15522,0.024,551
2019-06-20T14:56:33,42.805,6.029,CST-1368DR,8973,12557,15522,0.024,551
2019-06-20T14:59:35,42.805,6.029,CST-1368DR,8973,12555,15519,0.025,551
2019-06-20T15:02:36,42.805,6.029,CST-1368DR,8973,12557,15521,0.024,551
2019-06-20T15:05:38,42.805,6.029,CST-1368DR,8973,12556,15520,0.025,551
2019-06-20T15:08:39,42.805,6.029,CST-1368DR,8973,12558,15523,0.024,551
2019-06-20T15:11:40,42.805,6.029,CST-1368DR,8973,12555,15519,0.025,551
2019-06-20T15:14:42,42.805,6.029,CST-1368DR,8973,12557,15521,0.024,550
2019-06-20T15:17:43,42.805,6.029,CST-1368DR,8973,12558,15523,0.024,551
2019-06-20T15:20:45,42.805,6.029,CST-1368DR,8973,12560,15525,0.023,551
2019-06-20T15:23:46,42.805,6.029,CST-1368DR,8973,12558,15523,0.024,551
2019-06-20T15:26:47,42.805,6.029,CST-1368DR,8973,12559,15524,0.024,551
2019-06-20T15:29:49,42.805,6.029,CST-1368DR,8973,12559,15524,0.024,551
2019-06-20T15:32:50,42.805,6.029,CST-1368DR,8973,12558,15523,0.024,551
2019-06-20T15:35:52,42.805,6.029,CST-1368DR,8973,12557,15522,0.024,551
2019-06-20T15:38:53,42.805,6.029,CST-1368DR,8973,12558,15523,0.024,551
2019-06-20T15:41:54,42.805,6.029,CST-1368DR,8973,12558,15522,0.024,551
2019-06-20T15:44:56,42.805,6.029,CST-1368DR,8973,12558,15523,0.024,551
2019-06-20T15:47:57,42.805,6.029,CST-1368DR,8972,12556,15522,0.024,551
2019-06-20T15:50:59,42.805,6.029,CST-1368DR,8973,12558,15522,0.024,551
2019-06-20T15:54:00,42.805,6.029,CST-1368DR,8973,12557,15521,0.024,550
2019-06-20T15:57:02,42.805,6.029,CST-1368DR,8972,12557,15523,0.024,551
2019-06-20T16:00:03,42.805,6.029,CST-1368DR,8972,12557,15523,0.024,551
2019-06-20T16:03:04,42.805,6.029,CST-1368DR,8972,12557,15523,0.024,551
2019-06-20T16:06:06,42.805,6.029,CST-1368DR,8972,12557,15523,0.024,551
2019-06-20T16:09:07,42.805,6.029,CST-1368DR,8972,12557,15523,0.024,551
2019-06-20T16:12:09,42.805,6.029,CST-1368DR,8972,12557,15523,0.024,551
2019-06-20T16:15:10,42.805,6.029,CST-1368DR,8972,12556,15522,0.024,551
2019-06-20T16:18:11,42.805,6.029,CST-1368DR,8972,12558,15524,0.024,551
2019-06-20T16:21:13,42.805,6.029,CST-1368DR,8972,12558,15524,0.024,551
2019-06-20T16:24:14,42.805,6.029,CST-1368DR,8972,12556,15521,0.024,551
2019-06-20T16:27:16,42.805,6.029,CST-1368DR,8972,12557,15523,0.024,550
2019-06-20T16:30:17,42.805,6.029,CST-1368DR,8972,12557,15523,0.024,551
2019-06-20T16:33:18,42.805,6.029,CST-1368DR,8972,12559,15525,0.023,551
2019-06-20T16:36:20,42.805,6.029,CST-1368DR,8972,12558,15524,0.024,551